Tracking 35331 objects as of 16-Sep-2026
HD Live streaming from Space Station
objects crossing your sky now

MOLNIYA 1-22


MOLNIYA 1-22 is no longer on orbit


NORAD ID: 6294
Int'l Code: 1972-095A
Launch date: December 2, 1972
Source: Commonwealth of Independent States (former USSR) (CIS)
Launch site: TYURATAM MISSILE AND SPACE COMPLEX (TTMTR)
Decay date: 1976-02-11
Your satellite tracking list
Your tracking list is empty




NASA's NSSDC Master Catalog

Two Line Element Set (TLE):
1 06294U 72095  A 76040.29191589  .31109146 +00000-0 +00000-0 0  9990
2 06294 064.9614 339.6132 0771373 196.4498 161.0121 13.17223334025254
Source of the keplerian elements: AFSPC